www.pogodaiklimat.ru

Погода и климат >> Архив погоды >> Кука Острова >> Rarotonga


ПОГОДА в Rarotonga

  • Прогноз погоды в Rarotonga
  • Монитор погоды в Rarotonga
  • Климат города

АРХИВ ПОГОДЫ в Rarotonga

Время (UTC), дата Ветер
(напр.,м/с)
 
Видим.   Явления Облачность Т
(С)
Тd
(С)
f
(%)
Тe
(С)
Тes
(С)
Комфортность P
(гПа)
Po
(гПа)
Тmin
(С)
Tmax
(С)
R
(мм)
S
(см)
03 16.03 С 3 50 км 5/3 600 м
[Cb cap Ci fib]
+31.6 +25.9 72 +47 +49 опасность
перегрева
1010.2 1010.0
06 16.03 С 3 20 км 8/5 750 м
[Cu hum Ci fib]
+26.8 +23.6 83 +37 +37 очень
душно
1012.4 1012.0
09 16.03 С 6 20 км зарница 9/4 540 м
[Cb calv Ci fib]
+27.5 +24.7 85 +39 +39 очень
душно
1013.3 1013.0
12 16.03 В 2 20 км гроза без осадков 8/4 540 м
[Cb calv Ci fib]
+26.7 +24.4 87 +37 +37 очень
душно
1013.1 1013.0 +33.0
15 16.03 С 9 20 км гроза с градом {дождь} 9/9 480 м
[Cb calv]
+25.1 +24.1 94 +35 +35 очень
душно
1013.5 1014.0
18 16.03 Ю 2 20 км {морось} 8/3 750 м
[Cu hum Ac trans Ci fib]
+25.7 +24.0 90 +35 +37 очень
душно
1013.1 1013.0
21 16.03 В 3 50 км 8/1 540 м
[Cu med, cong Ac trans Ci fib]
+29.5 +23.9 72 +41 +49 опасность
перегрева
1015.2 1015.0
00 17.03 В 4 50 км 4/4 300 м
[Cu med, cong Ci fib]
+30.6 +25.7 75 +45 +53 опасность
перегрева
1013.6 1014.0 +19.0
06 17.03 В 3 20 км 6/3 480 м
[Cu hum Ci fib]
+27.7 +24.6 83 +39 +39 очень
душно
1014.8 1015.0
09 17.03 В 6 10 км слабый ливневой дождь 8/8 360 м
[Cu Sc]
+25.9 +23.1 85 +35 +35 очень
душно
1015.5 1016.0
12 17.03 В 2 20 км {ливн. осадки, дождь} 8/8 450 м
[Cu Sc]
+26.2 +24.6 91 +37 +37 очень
душно
1013.7 1014.0 +31.2 5
15 17.03 В 3 20 км слабый ливневой дождь 10/4 480 м
[Cu med, cong Ac As]
+25.3 +24.3 94 +35 +35 очень
душно
1013.2 1013.0
18 17.03 В 3 20 км слабый ливневой дождь 10/5 450 м
[Cu med, cong Ac As]
+26.0 +23.8 88 +36 +36 очень
душно
1014.6 1015.0 5
21 17.03 Ю 2 20 км сильный дождь 10/6 300 м
[Cu med, cong As op]
+25.9 +24.6 93 +37 +38 очень
душно
1015.8 1016.0
00 18.03 В 3 20 км {ливн. осадки} 10/3 300 м
[Cu med, cong Ac As]
+27.5 +24.8 85 +39 +42 очень
душно
1014.2 1014.0 +23.1 30
03 18.03 ЮВ 5 20 км 10/3 450 м
[Cu hum Ac As]
+27.1 +24.7 87 1013.2 1013.0
06 18.03 В 7 20 км 8/3 360 м
[Cu med, cong As trans]
+27.0 +24.6 87 +38 +38 очень
душно
1013.0 1013.0 0.3
09 18.03 В 6 10 км 6/4 360 м
[Cu med, cong As trans]
+27.6 +25.2 87 +40 +40 очень
душно
1013.9 1014.0
12 18.03 В 6 20 км 8/4 480 м
[Cu med, cong As trans]
+28.3 +25.1 83 +41 +41 опасность
перегрева
1013.0 1013.0 +28.5
15 18.03 В 5 20 км {ливн. осадки} 8/8 480 м
[Cu Sc]
+28.1 +25.1 84 +41 +41 опасность
перегрева
1012.1 1012.0
18 18.03 В 2 20 км 8/5 480 м
[Cu med, cong Ci fib]
+28.3 +25.3 84 +41 +42 опасность
перегрева
1012.8 1013.0 0.1
21 18.03 СВ 7 20 км 6/3 450 м
[Cu med, cong Ci fib]
+30.0 +25.8 78 +45 +48 опасность
перегрева
1013.0 1013.0
00 19.03 СВ 2 50 км 9/5 300 м
[Cb calv Ci fib]
+30.8 +26.2 77 +47 +54 опасность
перегрева
1011.6 1012.0 +22.0
03 19.03 СВ 2 20 км 9/5 480 м
[Cb calv Ci fib]
+29.5 +25.3 78 +43 +44 опасность
перегрева
1010.9 1011.0
06 19.03 В 3 20 км 8/5 420 м
[Cu med, cong As trans Ci fib]
+27.9 +25.2 85 +40 +40 очень
душно
1012.0 1012.0
09 19.03 В 3 20 км 5/4 360 м
[Cu hum Ci fib]
+28.0 +25.2 85 +41 +41 опасность
перегрева
1012.9 1013.0
12 19.03 В 2 20 км 5/4 480 м
[Cu med, cong Ci fib]
+26.8 +25.0 90 +39 +39 очень
душно
1010.6 1011.0 +31.5
15 19.03 В 2 20 км 4/3 630 м
[Cu hum Ci fib]
+26.7 +25.0 90 +38 +38 очень
душно
1010.6 1011.0
18 19.03 В 2 20 км 5/4 480 м
[Cu hum Ci fib]
+27.5 +25.4 88 +40 +41 очень
душно
1012.1 1012.0
21 19.03 В 3 50 км 8/3 540 м
[Cu hum Ci fib]
+30.3 +25.7 76 +45 +52 опасность
перегрева
1012.7 1013.0
03 20.03 СВ 3 50 км 5/5 300 м
[]
+30.0 +25.2 76
06 20.03 В 2 20 км 3/1 700 м
[Cu hum Ci fib]
+27.3 +24.4 84 +38 +38 очень
душно
1011.9 1012.0
12 20.03 В 2 20 км {ливн. осадки} 3/3 500 м
[Cu med, cong]
+27.0 +25.5 92 +40 +40 очень
душно
1011.6 1012.0 +31.5 0.3
15 20.03 ЮВ 2 20 км 3/3 480 м
[Cu med, cong]
+26.4 +24.8 91 +38 +38 очень
душно
1011.5 1012.0
18 20.03 ЮВ 2 20 км 3/3 300 м
[Cu med, cong]
+26.4 +24.8 91 +38 +39 очень
душно
1011.5 1012.0
21 20.03 С 4 20 км слабый ливневой дождь 9/5 300 м
[Cu med, cong Ac As]
+29.9 +26.6 83 +46 +49 опасность
перегрева
1013.6 1014.0
00 21.03 С 6 50 км {ливн. осадки} 5/3 300 м
[Cu med, cong Ci fib]
+31.2 +25.9 73 +46 +51 опасность
перегрева
1012.5 1013.0 +25.4
03 21.03 С 6 20 км осадки на расстоянии 6/4 450 м
[Cu med, cong Ac trans]
+29.9 +26.6 83 +46 +47 опасность
перегрева
1012.4 1012.0
06 21.03 С 3 20 км 8/5 480 м
[Cu med, cong Ci fib]
+28.4 +25.3 83 +41 +41 опасность
перегрева
1014.1 1014.0
09 21.03 СВ 1 50 км 8/5 480 м
[Cu med, cong Ci fib]
+27.2 +25.5 90 +40 +40 очень
душно
1015.3 1015.0
12 21.03 С 5 20 км 4/4 480 м
[Cu med, cong Ac trans Ci fib]
+28.1 +25.9 88 +42 +42 опасность
перегрева
1014.5 1015.0 +32.0
15 21.03 С 3 20 км 3/3 480 м
[Cu med, cong Ci fib]
+27.5 +25.5 89 +40 +40 очень
душно
1014.1 1014.0
18 21.03 штиль 0 50 км ?/? +28.5 +25.7 85 +42 +42 опасность
перегрева
1015.8 1016.0
21 21.03 С 4 50 км 4/4 450 м
[Cu med, cong]
+31.5 +27.5 79 +50 +57 опасность
перегрева
1016.1 1016.0
00 22.03 СВ 4 50 км 3/3 600 м
[Cu med, cong Ci fib]
+32.1 +26.3 72 +49 +57 опасность
перегрева
1014.6 1015.0 +25.6
03 22.03 СВ 3 50 км 3/3 540 м
[Cu hum Ci fib]
+31.0 +25.6 73 +46 +47 опасность
перегрева
1014.1 1014.0
06 22.03 СВ 1 20 км 3/3 540 м
[Cu med, cong]
+28.3 +25.1 83 +41 +41 опасность
перегрева
1015.4 1015.0
09 22.03 В 1 20 км 4/4 300 м
[Cu med, cong]
+27.2 +24.8 87 +39 +39 очень
душно
1016.6 1017.0
12 22.03 В 2 20 км 3/3 480 м
[Cu med, cong]
+27.9 +25.4 86 +41 +41 опасность
перегрева
1015.6 1016.0 +33.2
15 22.03 СВ 3 20 км 3/3 480 м
[Cu med, cong]
+25.2 +25.1 99 +36 +36 очень
душно
1014.9 1015.0
18 22.03 СВ 5 50 км 3/3 540 м
[Cu hum]
+28.6 +25.1 81 +41 +42 опасность
перегрева
1015.8 1016.0
21 22.03 СВ 4 50 км 4/4 480 м
[Cu med, cong]
+30.4 +25.7 76 +45 +51 опасность
перегрева
1016.1 1016.0

 

Местоположение метеостанции Rarotonga (Кука Острова): широта -21.20 долгота -159.80 высота над уровнем моря 7 м.

В архиве по умолчанию представлена погода в Rarotonga за последнюю неделю. Архивные данные за месяц целиком и за предыдущие месяцы, начиная с января 2011 года, Вы можете получить, выбрав интересующий диапазон дат из раскрывающегося списка и нажав кнопку "Ввод!".

Внимание! Время в таблицах - всемирное. Для получения местного времени необходимо прибавить поправку, которая в Rarotonga равна -10 ч.

Смотрите также архив погоды в соседних городах и на ближайших метеорологических станциях:

Погода в Aitutaki (Кука Острова) (264 км)
Погода в Bora-Bora Airport (Французская Полинезия) (1004 км)
Погода в Hanan Airport (Кука Острова) (1080 км)
Погода в Tubuai (Французская Полинезия) (1097 км)
Погода в Tahiti-Faaa (Французская Полинезия) (1144 км)
Погода в Manihiki (Кука Острова) (1205 км)
Погода в Penrhyn (Кука Острова) (1367 км)
Погода в Le Mafa (Самоа) (1487 км)
Погода в Lufi-Lufi (Самоа) (1488 км)
Погода в Togitogiga (Самоа) (1498 км)

Пояснения к столбцам:

Ветер - указаны скорость ветра в м/с - средняя за 10 мин, порывы в срок и между сроками (в фигурных скобках) и направление, откуда дует ветер: С - северный, СВ - северо-восточный, В - восточный, ЮВ - юго-восточный, Ю - южный, ЮЗ - юго-западный, З - западный, СЗ - северо-западный.
Видимость - горизонтальная дальность видимости в метрах или километрах. При видимости от 1 до 10 км при отсутствии осадков обычно наблюдается дымка, при ухудшении видимости до 1 км и менее - туман. В сухую погоду видимость может ухудшаться дымом, пылью или мглою.
Явления - указаны атмосферные явления, наблюдавшиеся в срок или в последний час перед сроком; фигурными скобками обозначены явления, наблюдавшиеся между сроками (за 1-3 часа до срока); квадратными скобками обозначены град или гололедные отложения с указанием их диаметра в мм.
Облачность - указаны через наклонную черту общая и нижняя облачность в баллах и высота нижней границы облаков в метрах; квадратными скобками обозначены формы облаков: Ci - перистые, Cs - перисто-слоистые, Cc - перисто-кучевые, Ac - высококучевые, As - высокослоистые, Sc - слоисто-кучевые, Ns - слоисто-дождевые, Cu - кучевые, Cb - кучево-дождевые. Подробнее классификацию облаков см. в Атласе облаков (PDF).
T - Температура воздуха - температура, измеренная на высоте 2 м над землей.
Td - Температура точки росы - температура, при понижении до которой содержащийся в воздухе водяной пар достигнет насыщения.
f - Относительная влажность воздуха - влажноcть воздуха, измеренная на высоте 2 м над землей.
Te - Эффективная температура - температура, которую ощущает одетый по сезону человек в тени. Характеристика душности погоды. При расчете учитывается влияние влажности воздуха и скорости ветра на теплоощущения человека.
Tes - Эффективная температура на солнце - температура, которую ощущает человек, с поправкой на солнечный нагрев. Характеристика знойности погоды. Зависит от высоты солнца над горизонтом, облачности и скорости ветра. Ночью, в пасмурную погоду, а также при ветре 12 м/с и более поправка равна нулю.
P - Атмосферное давление - приведенное к уровню моря атмосферное давление.
Po - Атмосферное давление - измеренное на уровне метеостанции атмосферное давление.
Tmin - Минимальная температура - минимум температуры воздуха на высоте 2 м над землей.
Tmax - Максимальная температура - максимум температуры воздуха на высоте 2 м над землей.
R - Количество осадков - Количество выпавших осадков, мм. При наведении курсора мыши на число - период времени, за который выпало указанное количество осадков.
S - Снежный покров - Высота снежного покрова, см. При наведении курсора мыши на число - состояние снежного покрова и степень покрытия местности в баллах.